Location: *
(48.8167°S, 165.8500°W)
Time: 11:40:47
(UTC+00:00)

Daily predictions for brighter satellites

Satellite Brightness Start Highest point End
(mag) Time Altitude Azimuth Time Altitude Azimuth Time Altitude Azimuth
Cosmos 2369 Rocket 4.4 14:30:02 20° SE 14:30:02 20° SE 14:33:49 10° E
SJ 16-02 4.4 14:41:19 13° ESE 14:41:19 13° ESE 14:42:17 10° E
Cosmos 2237 Rocket 4.1 14:43:48 23° SE 14:43:48 23° SE 14:45:56 10° SSE
Cosmos 1943 Rocket 3.8 14:51:02 31° E 14:51:02 31° E 14:54:26 10° ENE
USA 234 3.8 14:47:36 10° ESE 14:53:22 51° ENE 14:53:22 51° ENE
NOSS 3-1 (C) 4.1 14:59:42 79° E 14:59:42 79° E 15:07:03 10° SE
SL-16 R/B 3.4 15:04:29 39° ENE 15:04:29 39° ENE 15:09:47 10° SE
USA 229 DEB 4.2 15:08:33 59° NNE 15:09:22 63° NE 15:16:35 10° SE
USA 229 4.2 15:08:37 59° NNE 15:09:27 62° NE 15:16:40 10° SE
Cosmos 2219 Rocket 4.4 15:13:21 15° S 15:13:21 15° S 15:14:34 10° SSE
NOSS 3-1 (A) 4.1 15:29:00 51° NNW 15:31:28 79° NE 15:39:09 10° SE
ISS -0.7 15:35:03 15° ENE 15:35:03 15° ENE 15:36:05 10° E
Lacrosse 4 Rocket 2.8 15:36:41 40° ENE 15:36:41 40° ENE 15:39:50 10° NE
ATLAS 3B R/B 4.0 15:38:42 27° SSW 15:38:53 27° SSW 15:44:49 10° SE
CENTAUR R/B 4.0 15:41:54 22° S 15:43:29 24° SSE 15:48:01 10° ESE
MOS 1 Rocket 4.3 15:40:32 10° SSE 15:44:44 41° E 15:49:00 10° N
Cosmos 1727 Rocket 4.0 15:40:06 10° N 15:46:29 82° E 15:52:58 10° S
H-2A R/B 4.4 15:47:46 10° ENE 15:51:24 20° ESE 15:55:08 10° SSE
ATLAS 5 CENTAUR R/B 2.8 15:48:27 36° NNW 15:51:43 73° NE 15:58:26 10° SE
Cosmos 2333 Rocket 4.2 15:55:27 15° S 15:55:27 15° S 15:57:13 10° S
Cosmos 1939 Rocket 4.5 15:52:22 10° NE 15:55:56 33° ESE 15:58:11 19° SSE
Cosmos 1932 4.4 15:56:22 64° WNW 15:56:37 65° WNW 16:03:01 10° NNE
BREEZE-M DEB (TANK) 3.9 15:59:57 24° NE 15:59:57 24° NE 16:01:33 10° ENE
Cosmos 1777 Rocket 4.1 16:00:31 61° NNW 16:00:31 61° NNW 16:04:59 10° NNE
Cosmos 1025 Rocket 4.3 16:03:23 33° S 16:03:23 33° S 16:05:52 10° S
Meteor 2-11 Rocket 4.5 15:55:45 10° S 16:02:02 80° E 16:08:14 10° NNE
Cosmos 1459 Rocket 4.0 15:59:29 10° S 16:05:48 82° E 16:11:57 10° N
Genesis I 4.2 16:05:57 40° SE 16:05:57 40° SE 16:09:26 10° ENE
Cosmos 2297 4.0 16:07:27 48° NW 16:07:27 48° NW 16:12:03 10° N
Cosmos 2173 Rocket 4.0 16:03:09 10° S 16:09:30 89° E 16:15:52 10° N
BREEZE-M TANK 3.8 16:08:48 48° WNW 16:10:19 66° N 16:26:09 10° ENE
Meteor 1-24 Rocket 4.4 16:07:03 10° N 16:12:19 51° E 16:17:33 10° SSE
Cosmos 2369 Rocket 2.2 16:11:51 32° SSW 16:14:35 83° ESE 16:20:17 10° NNE
CZ-4B R/B 4.2 16:10:35 10° NE 16:15:52 48° ESE 16:21:19 10° S
BREEZE-M DEB (TANK) 3.3 16:16:43 44° E 16:16:43 44° E 16:19:37 10° E
SJ 16-02 1.2 16:18:21 73° SW 16:18:42 80° WNW 16:23:09 10° NNE
Meteor 2-5 Rocket 3.9 16:14:13 10° N 16:19:51 73° E 16:25:29 10° SSE
USA 81 4.0 16:16:33 10° S 16:21:52 66° W 16:27:07 10° N
USA 307 3.5 16:21:52 44° S 16:22:20 46° SSE 16:26:32 10° E
Cosmos 2016 Rocket 4.1 16:17:25 10° S 16:23:45 77° E 16:29:55 10° NNE
Cosmos 2237 Rocket 3.3 16:25:38 26° SSW 16:25:38 26° SSW 16:29:40 10° SSE
Cosmos 2123 Rocket 4.4 16:20:01 10° N 16:26:08 64° E 16:32:25 10° SSE
Cosmos 1346 Rocket 2.8 16:22:53 10° N 16:26:52 80° E 16:30:55 10° SSE
CRYOSAT 2 4.2 16:23:40 10° N 16:28:35 77° W 16:33:34 10° S
Cosmos 1455 4.1 16:26:34 10° S 16:30:07 31° ESE 16:33:38 10° NE
SL-14 R/B 4.4 16:31:57 32° SSW 16:31:57 32° SSW 16:34:26 10° S
Okean O Rocket 2.7 16:26:17 10° NE 16:30:30 45° ESE 16:34:46 10° S
CORIOLIS 4.1 16:26:28 10° NNE 16:31:56 90° ESE 16:37:26 10° SSW
Cosmos 1943 Rocket 2.6 16:32:37 39° W 16:32:54 40° WNW 16:38:04 10° N
NOAA 6 4.0 16:28:47 10° N 16:33:56 67° WNW 16:39:11 10° SSW
Cosmos 1184 Rocket 4.0 16:31:13 10° N 16:34:22 44° E 16:37:34 10° SSE
PAYLOAD B 4.2 16:30:07 10° NNE 16:35:40 90° SE 16:41:18 10° SSW
USA 234 3.3 16:30:39 10° SE 16:37:11 67° SSW 16:40:44 29° W
USA 305 3.4 16:37:38 39° SW 16:38:54 53° SSE 16:43:12 10° E
USA 308 3.4 16:38:05 38° SW 16:39:19 51° SSE 16:43:35 10° E
NOAA 12 4.1 16:34:52 10° N 16:40:01 56° W 16:45:15 10° SSW
FengYun 1-2 T 4.2 16:34:58 10° N 16:40:32 71° WNW 16:46:14 10° SSW
Cosmos 389 Rocket 4.1 16:44:31 22° NNW 16:44:31 22° NNW 16:45:57 10° NNW
PSLV R/B 3.8 16:39:00 10° N 16:42:57 60° W 16:44:46 31° SSW
NOAA 11 4.4 16:38:13 10° N 16:43:33 48° W 16:48:58 10° SSW
Cosmos 1536 Rocket 3.6 16:40:27 10° NNW 16:44:55 60° WSW 16:49:28 10° S
Meteor 2-10 Rocket 3.5 16:42:24 10° SSW 16:48:04 78° W 16:53:26 10° N
CZ-2C R/B 3.1 16:42:40 10° N 16:48:06 72° WNW 16:53:52 10° SSW
H-2A R/B 3.5 16:43:55 10° NE 16:48:14 52° ESE 16:52:42 10° S
Cosmos 1802 Rocket 3.9 16:42:26 10° SSW 16:48:34 62° W 16:54:39 10° N
SL-16 R/B 2.6 16:46:25 30° W 16:48:35 42° SW 16:54:03 10° SSE
Cosmos 2061 Rocket 4.0 16:42:22 10° SSW 16:48:50 78° W 16:55:17 10° N
NOSS 3-1 (C) 4.5 16:47:07 26° W 16:51:03 41° SSW 16:57:50 10° SE
Cosmos 1898 Rocket 3.8 16:46:16 10° SSW 16:51:42 69° ESE 16:57:03 10° NNE
NOSS 3-2 (A) 4.1 16:46:26 15° SW 16:51:53 50° SE 16:57:33 10° ENE
Cosmos 2100 Rocket 4.3 16:48:53 10° SSW 16:54:52 43° W 17:00:51 10° NNW
Landsat 5 3.8 16:51:13 10° SSE 16:55:07 63° ENE 16:59:04 10° N
Cosmos 2219 Rocket 4.3 16:55:04 10° SSW 16:55:31 10° SSW 16:56:07 10° SSW
Spot 2 4.3 16:52:02 10° NNE 16:56:21 69° ESE 17:00:32 10° S
Cosmos 2084 Rocket 3.7 16:55:46 10° NW 17:00:36 89° SW 17:05:23 10° SE
USA 229 DEB 4.2 16:56:02 22° W 17:00:42 46° SW 17:07:35 10° SE
USA 229 4.2 16:56:05 22° W 17:00:47 46° SW 17:07:40 10° SE
COSMO-SKYMED 1 3.5 16:56:53 10° SSE 17:01:14 52° E 17:05:32 10° N
USA 306 3.1 17:00:53 27° SW 17:03:06 63° SSE 17:07:23 10° ENE
Cosmos 2058 Rocket 4.1 16:59:34 10° S 17:04:04 49° ESE 17:08:28 10° NNE
Cosmos 1725 Rocket 4.0 16:58:16 10° SSW 17:04:31 64° W 17:10:39 10° N
Cosmos 1300 4.4 17:06:55 18° WNW 17:06:55 18° WNW 17:08:25 10° NW
SMAP 3.5 17:01:27 10° NNW 17:05:50 38° W 17:10:14 10° SSW
Cosmos 1763 Rocket 3.8 17:01:18 10° N 17:06:27 68° ENE 17:11:35 10° SSE
Cosmos 1726 Rocket 3.7 17:03:03 10° S 17:07:37 84° E 17:12:08 10° N
deb Chang Zheng 4 4.2 17:04:22 10° NNW 17:08:16 32° W 17:10:35 20° SW
SL-19 R/B 4.5 17:03:35 10° SSE 17:09:48 61° WSW 17:15:31 10° NW
ISS -3.7 17:08:04 25° WNW 17:09:55 86° NNE 17:13:24 10° ESE
Meteor 1-4 Rocket 3.3 17:08:26 10° S 17:12:05 54° ESE 17:15:37 10° NNE
Cosmos 2228 3.1 17:08:53 10° SSW 17:13:15 55° W 17:17:34 10° N
Lacrosse 4 Rocket 2.8 17:13:02 21° W 17:13:44 22° WNW 17:17:10 10° NNW
NOSS 3-2 (C) 4.3 17:12:47 10° SW 17:19:19 47° SE 17:24:58 10° ENE
USA 276 4.1 17:16:38 10° NNW 17:19:28 29° NNE 17:22:19 10° E
SL-24 DEB 4.4 17:14:52 10° N 17:19:35 81° E 17:24:24 10° S
Okean-O 4.2 17:15:41 10° NE 17:19:46 36° ESE 17:23:55 10° S
CZ-4C R/B 3.9 17:12:43 10° NNW 17:20:40 52° ENE 17:27:28 10° SE
MOS 1 Rocket 4.2 17:19:16 10° S 17:22:48 24° WSW 17:26:24 10° WNW
NOSS 3-1 (A) 4.5 17:16:30 14° W 17:23:11 41° SSW 17:29:59 10° SE
CZ-2D R/B 3.5 17:21:18 10° N 17:25:01 48° W 17:28:48 10° SSW
Cosmos 2233 Rocket 4.0 17:20:02 10° SSW 17:26:14 67° W 17:32:20 10° N
Cosmos 1441 Rocket 3.2 17:22:14 10° NNW 17:26:16 78° WSW 17:30:19 10° S
Cosmos 1943 3.2 17:21:57 10° NW 17:27:37 71° WSW 17:33:20 10° SSE
Cosmos 482 Debris 4.4 17:24:19 17° WSW 17:28:10 67° NNW 17:31:25 10° NE
SJ-11-01 4.4 17:24:10 10° NNE 17:28:53 82° ESE 17:33:40 10° SSW
ARGOS 3.4 17:24:33 10° NNE 17:29:57 76° ESE 17:35:25 10° SSW
H-2A R/B 2.0 17:25:11 10° N 17:30:15 73° WNW 17:35:32 10° SSW
Cosmos 1939 Rocket 3.9 17:27:39 10° NNW 17:30:55 24° W 17:34:04 11° SW
ATLAS 3B R/B 4.1 17:26:04 10° SW 17:31:59 26° SSE 17:37:41 10° ESE
Meteor 2-1 Rocket 4.3 17:26:47 10° SSW 17:32:31 88° ESE 17:38:06 10° N
CZ-4 R/B 1.6 17:30:05 10° NNE 17:33:59 72° ESE 17:37:55 10° S
CENTAUR R/B 2.6 17:29:24 10° SW 17:35:20 60° SE 17:40:32 10° ENE
ATLAS 5 CENTAUR R/B 3.1 17:30:18 10° WNW 17:37:01 40° SSW 17:43:02 10° SE
Cosmos 1937 Rocket 3.5 17:31:54 10° SSW 17:37:10 72° WNW 17:42:26 10° NNE
Cosmos 1606 Rocket 4.1 17:33:17 10° SSW 17:37:33 40° W 17:41:47 10° NNW
ERBS 4.0 17:36:07 12° SW 17:38:36 23° SSE 17:41:25 10° ESE
EXPRESS MD2 3.8 17:35:41 11° WNW 17:39:05 89° SSW 17:46:16 10° ESE
Cosmos 1656 Rocket 4.3 17:35:04 10° SW 17:40:02 35° WNW 17:45:03 10° N
CZ-4C R/B 3.4 17:36:43 10° S 17:40:08 42° WSW 17:43:34 10° NW
USA 186 4.4 17:40:11 10° ENE 17:41:43 15° ESE 17:43:20 10° SSE
Cosmos 540 Rocket 3.7 17:37:37 10° NNW 17:42:47 78° ENE 17:48:00 10° SSE
Genesis I 4.3 17:40:49 14° WSW 17:43:17 25° WNW 17:46:21 10° N
CZ-2C R/B 3.1 17:39:52 10° SSE 17:45:30 74° ENE 17:51:08 10° N
SME Rocket 3.4 17:41:54 10° S 17:46:07 68° WSW 17:51:51 10° NNW
Cosmos 44 3.6 17:43:27 10° NNW 17:47:42 61° NE 17:51:56 10° SE
SKYMED 2 3.7 17:44:58 10° S 17:49:16 53° WSW 17:53:33 10° NNW
YAOGAN 1 2.6 17:45:14 10° NNE 17:49:37 86° WNW 17:54:04 10° SSW
H-2A R/B 2.0 17:45:40 10° SSE 17:50:04 85° WSW 17:54:17 10° NNW
USA 238 DEB 3.9 17:44:40 10° SW 17:51:42 77° SE 17:58:19 10° NE
USA 238 3.9 17:44:47 10° SW 17:51:49 76° SE 17:58:26 10° NE
Cosmos 468 Rocket 4.1 17:47:33 10° NW 17:52:37 53° WSW 17:57:43 10° SSE
CZ-4B R/B 4.0 17:51:46 10° NNW 17:56:37 31° W 18:01:36 10° SSW
Cosmos 2369 Rocket 3.6 17:54:14 10° WSW 17:57:53 18° W 18:01:33 10° NW
Cosmos 372 Rocket 4.0 17:55:33 10° SSW 18:00:44 75° WNW 18:05:54 10° NNE
USA 307 3.0 17:58:12 10° WSW 18:02:31 73° NNW 18:06:50 10° NE
Cosmos 1455 3.4 18:02:22 10° SW 18:05:33 23° W 18:08:42 10° NW
Cosmos 1626 Rocket 3.9 18:02:02 10° N 18:06:31 78° E 18:11:07 10° SSE
